Find Starlink 35678

NORAD ID: 66971 Int'l Des: 2025-288 Owner: SPXS Country: US Constellation: starlink operational
LEOCIRCULAR

現在のビュー

3D地球を読み込み中...

Starlink 35678について

説明を読み込み中...

次回通過

Passes for default location (London). Set your location on the main map for personalized predictions.

高度履歴

Loading altitude history...

軌道要素

1 66971U 25288N 26146.14730274 .00021632 00000-0 79305-3 0 9992
2 66971 43.0008 306.0021 0001562 270.8723 89.1949 15.27589872 27138
Epoch: May 26, 2026 • Age: 18 hours

現在のステータス

高度 482.9 km
速度 7.63 km/s
衛星直下点 19.63°N, 106.83°W
打ち上げ日 Dec 8, 2025
運用期間 0.4 years
タイプ internet

技術仕様

分類 Payload
質量 575.00 kg
乾燥質量 530.00 kg
総質量 575.00 kg
長さ 0.30 m
直径 4.10 m
スパン 29.00 m
形状 Box + pan
製造者 SPXS
バスタイプ Starlink V2MO
フェーズステータス In Orbit
所有者/国 SPXS/US

Most Searched